K4AVM-13 Weather Reports


time (UTC)temp
F
wind
direction
speed
knots
gust
knots
rain 1hr
in
rain 24hr
in
rain mn
in
humidity
%
barometer
mb
20260904035809 80 235 0.0 0.0 0.00 0.01 0.01 88 1015.8
20260904035306 80 231 0.0 0.0 0.00 0.01 0.01 88 1015.8
20260904034803 81 231 0.0 0.0 0.00 0.01 0.01 87 1015.6
20260904034259 81 210 0.0 0.9 0.00 0.01 0.01 87 1015.9
20260904033755 81 246 0.0 0.0 0.00 0.01 0.01 87 1015.9
20260904033251 81 246 0.0 0.0 0.00 0.01 0.01 86 1016.0
20260904032748 81 245 0.0 0.0 0.00 0.01 0.01 86 1016.2
20260904032246 81 246 0.0 0.0 0.00 0.01 0.01 86 1016.0
20260904031741 81 235 0.0 0.0 0.00 0.01 0.01 87 1015.8
20260904031236 81 233 0.0 0.0 0.00 0.01 0.01 87 1016.0
20260904030726 81 248 0.0 0.0 0.00 0.01 0.01 87 1015.9
20260904030221 81 250 0.0 0.0 0.00 0.01 0.01 87 1015.9
20260904025718 81 242 0.0 0.0 0.00 0.01 0.01 87 1015.9
20260904025212 82 235 0.0 0.0 0.00 0.01 0.01 87 1015.7
20260904024708 82 233 0.0 0.0 0.00 0.01 0.01 87 1015.8
20260904024203 82 225 0.0 0.0 0.00 0.01 0.01 87 1016.0
20260904023659 82 219 0.0 0.0 0.00 0.01 0.01 87 1015.9
20260904023155 82 224 0.0 0.0 0.00 0.01 0.01 86 1015.6
20260904022649 82 224 0.0 0.0 0.00 0.01 0.01 86 1015.8
20260904022146 83 219 0.0 0.0 0.00 0.01 0.01 86 1015.7
20260904021641 83 219 0.0 0.0 0.00 0.01 0.01 85 1015.6
20260904021136 83 159 0.0 0.9 0.00 0.01 0.01 86 1015.5
20260904020633 83 235 0.0 0.9 0.00 0.01 0.01 86 1015.8
20260904020126 83 198 1.7 1.7 0.00 0.01 0.01 87 1015.9
20260904015621 82 189 0.9 0.9 0.00 0.01 0.01 89 1016.0
20260904015119 81 227 0.0 0.0 0.00 0.01 0.01 91 1016.1
20260904014614 81 221 0.0 0.0 0.00 0.01 0.01 91 1016.0
20260904014109 81 227 0.0 0.0 0.00 0.01 0.01 92 1016.0
20260904013606 81 227 0.0 0.0 0.00 0.01 0.01 92 1016.2
20260904013057 82 233 0.0 0.0 0.00 0.01 0.01 92 1016.0
20260904012556 82 254 0.0 0.0 0.00 0.01 0.01 92 1016.3
20260904012056 82 246 0.0 0.0 0.00 0.01 0.01 92 1016.2
20260904011549 82 246 0.0 0.0 0.00 0.01 0.01 92 1016.4
20260904011045 82 246 0.0 0.0 0.00 0.01 0.01 92 1016.2
20260904010541 82 246 0.0 0.0 0.00 0.01 0.01 91 1016.6
20260904010038 82 246 0.0 0.0 0.00 0.01 0.01 91 1016.5
20260904005537 82 246 0.0 0.0 0.00 0.01 0.01 91 1016.6
20260904005027 82 246 0.0 0.0 0.00 0.01 0.01 91 1016.4
20260904004523 82 246 0.0 0.0 0.00 0.01 0.01 91 1016.5
20260904004023 83 246 0.0 0.0 0.00 0.01 0.01 90 1016.2
20260904003519 83 246 0.0 0.0 0.00 0.01 0.01 90 1016.4
20260904003014 83 250 0.0 0.0 0.00 0.01 0.01 89 1016.4
20260904002510 83 250 0.0 0.0 0.00 0.01 0.01 89 1016.4
20260904002009 84 250 0.0 0.0 0.00 0.01 0.01 88 1016.2
20260904001505 84 250 0.0 0.0 0.00 0.01 0.01 88 1016.1
20260904000959 84 250 0.0 0.0 0.00 0.01 0.01 87 1016.1
20260904000458 84 250 0.0 0.0 0.00 0.01 0.01 87 1015.8
20260903235954 84 250 0.0 0.0 0.00 0.01 0.01 86 1016.0
20260903235449 84 250 0.0 0.0 0.00 0.01 0.01 85 1015.6
20260903234944 85 250 0.0 0.0 0.00 0.01 0.01 85 1015.5
20260903234440 85 250 0.0 0.0 0.00 0.01 0.01 84 1015.6
20260903233936 85 250 0.0 0.0 0.00 0.01 0.01 83 1015.6
20260903233431 86 239 0.0 0.0 0.00 0.01 0.01 83 1015.4
20260903232926 86 235 0.0 0.0 0.00 0.01 0.01 82 1015.4
20260903232420 86 244 0.0 0.0 0.00 0.01 0.01 81 1015.4
20260903231915 87 243 0.0 0.0 0.00 0.01 0.01 81 1015.7
20260903231410 87 243 0.0 0.0 0.00 0.01 0.01 80 1015.4
20260903230905 87 243 0.0 0.0 0.00 0.01 0.01 79 1015.6
20260903230400 88 243 0.0 0.0 0.00 0.01 0.01 79 1015.5
20260903225856 88 245 0.0 0.0 0.00 0.01 0.01 78 1015.3
20260903225352 88 240 0.0 0.0 0.00 0.01 0.01 79 1015.3
20260903224848 88 239 0.0 0.0 0.00 0.01 0.01 78 1015.3
20260903224343 88 238 0.0 0.0 0.00 0.01 0.01 77 1015.2
20260903223839 89 238 0.0 0.0 0.00 0.01 0.01 76 1015.3
20260903223337 89 242 0.0 0.0 0.00 0.01 0.01 75 1015.3
20260903222832 90 230 0.0 0.0 0.00 0.01 0.01 73 1015.2
20260903222326 90 234 0.0 0.0 0.00 0.01 0.01 72 1015.2
20260903221821 90 234 0.0 0.0 0.00 0.01 0.01 71 1015.3
20260903221320 91 235 0.0 0.0 0.00 0.01 0.01 71 1015.3
20260903220818 92 237 0.0 0.0 0.00 0.01 0.01 68 1015.3
20260903220312 93 226 0.0 0.0 0.00 0.01 0.01 67 1015.4
20260903215805 93 212 0.0 0.0 0.00 0.01 0.01 66 1015.5
20260903215305 93 222 0.0 0.0 0.00 0.01 0.01 65 1015.6
20260903214759 94 220 0.0 0.9 0.00 0.01 0.01 64 1015.5
20260903214256 94 228 0.0 0.9 0.00 0.01 0.01 61 1015.5
20260903213750 95 191 0.9 1.7 0.00 0.01 0.01 62 1015.4
20260903213246 96 222 0.0 0.9 0.00 0.01 0.01 60 1015.2
20260903212742 95 209 0.0 0.9 0.00 0.01 0.01 60 1015.5
20260903212238 95 202 0.0 0.0 0.00 0.01 0.01 60 1015.4
20260903211736 95 192 0.0 0.9 0.00 0.01 0.01 58 1015.5
20260903211228 95 185 0.0 0.9 0.00 0.01 0.01 61 1015.5
20260903210724 95 188 0.0 1.7 0.00 0.01 0.01 59 1015.6
20260903210219 96 191 0.9 1.7 0.00 0.01 0.01 59 1015.7
20260903205719 96 177 0.9 0.9 0.00 0.01 0.01 58 1015.7
20260903205218 96 218 0.0 0.0 0.00 0.01 0.01 58 1015.6
20260903204713 96 166 0.0 0.9 0.00 0.01 0.01 61 1015.9
20260903204210 96 237 0.9 2.6 0.00 0.01 0.01 61 1015.9
20260903203705 95 66 0.9 0.9 0.00 0.01 0.01 59 1015.8
20260903203159 96 237 0.9 1.7 0.00 0.01 0.01 59 1015.9
20260903202654 95 228 0.0 3.5 0.00 0.01 0.01 60 1015.7
20260903202150 95 177 0.9 2.6 0.00 0.01 0.01 61 1016.0
20260903201644 96 116 1.7 2.6 0.00 0.01 0.01 57 1016.0
20260903201143 96 25 0.9 0.9 0.00 0.01 0.01 57 1016.1
20260903200638 96 159 1.7 2.6 0.00 0.01 0.01 55 1016.1
20260903200134 97 236 0.0 0.9 0.00 0.01 0.01 56 1016.4
20260903195629 98 218 0.0 0.9 0.00 0.01 0.01 54 1016.3
20260903195125 98 239 0.0 0.0 0.00 0.01 0.01 50 1016.3
20260903194620 98 203 0.0 0.0 0.00 0.01 0.01 50 1016.4
20260903194120 97 239 0.0 2.6 0.00 0.01 0.01 54 1016.5
20260903193616 97 61 0.9 1.7 0.00 0.01 0.01 53 1016.5
20260903193111 98 208 0.9 1.7 0.00 0.01 0.01 52 1016.3
20260903192608 98 112 0.9 1.7 0.00 0.01 0.01 53 1016.5
20260903192103 96 121 0.0 0.9 0.00 0.01 0.01 56 1016.7
20260903191600 97 110 3.5 3.5 0.00 0.01 0.01 55 1016.7
20260903191054 99 269 1.7 2.6 0.00 0.01 0.01 52 1017.0
20260903190554 97 242 0.0 0.9 0.00 0.01 0.01 56 1016.7
20260903190053 96 348 0.9 1.7 0.00 0.01 0.01 57 1016.7
20260903185548 97 227 0.0 1.7 0.00 0.01 0.01 56 1017.1
20260903185044 97 165 0.9 0.9 0.00 0.01 0.01 58 1017.2
20260903184540 96 225 0.9 1.7 0.00 0.01 0.01 58 1017.1
20260903184035 96 238 0.0 1.7 0.00 0.01 0.01 58 1017.4
20260903183534 95 239 0.0 0.9 0.00 0.01 0.01 59 1017.3
20260903183030 96 230 0.0 1.7 0.00 0.01 0.01 62 1017.4
20260903182528 96 228 0.0 1.7 0.00 0.01 0.01 62 1017.4
20260903182025 94 248 0.0 0.9 0.00 0.01 0.01 66 1017.5
20260903181523 95 327 0.9 1.7 0.00 0.01 0.01 63 1017.5
20260903181023 95 242 0.0 0.9 0.00 0.01 0.01 61 1017.5
20260903180513 95 233 0.0 0.9 0.00 0.01 0.01 63 1017.7
20260903180012 95 199 0.0 1.7 0.00 0.01 0.01 64 1017.9
20260903175511 94 29 0.0 1.7 0.00 0.01 0.01 65 1018.0
20260903175010 94 266 0.0 0.9 0.00 0.01 0.01 64 1018.0
20260903174505 93 252 0.0 0.9 0.00 0.01 0.01 68 1017.9
20260903174001 95 353 1.7 2.6 0.00 0.01 0.01 64 1017.9
20260903173455 95 41 0.0 2.6 0.00 0.01 0.01 66 1017.9
20260903172951 93 190 0.0 0.9 0.00 0.01 0.01 68 1018.1
20260903172446 94 283 0.9 1.7 0.00 0.01 0.01 68 1018.1
20260903171941 93 259 0.9 2.6 0.00 0.01 0.01 70 1017.9
20260903171431 93 342 0.9 0.9 0.00 0.01 0.01 68 1018.0
20260903170931 92 230 0.0 0.9 0.00 0.01 0.01 71 1018.1
20260903170425 91 222 0.9 0.9 0.00 0.01 0.01 72 1018.1
20260903165924 92 244 0.9 0.9 0.00 0.01 0.01 70 1018.3
20260903165419 93 229 0.0 2.6 0.00 0.01 0.01 71 1018.2
20260903164919 92 294 0.9 2.6 0.00 0.01 0.01 70 1018.5
20260903164413 91 212 0.0 0.9 0.00 0.01 0.01 72 1018.4
20260903163908 91 119 0.9 0.9 0.00 0.01 0.01 73 1018.6
20260903163404 92 83 1.7 2.6 0.00 0.01 0.01 72 1018.5
20260903162900 91 215 0.0 1.7 0.00 0.01 0.01 72 1018.6
20260903162356 91 8 1.7 2.6 0.00 0.01 0.01 72 1018.7
20260903161852 91 36 0.9 1.7 0.00 0.01 0.01 68 1018.8
20260903161347 90 255 0.0 2.6 0.00 0.01 0.01 72 1018.7
20260903160843 90 223 0.0 0.9 0.00 0.01 0.01 73 1018.8
20260903160341 91 267 0.0 0.9 0.00 0.01 0.01 71 1018.9
20260903155840 91 239 0.9 0.9 0.00 0.01 0.01 72 1018.8
20260903155336 89 343 0.9 0.9 0.00 0.01 0.01 73 1018.8
20260903154831 89 260 0.0 1.7 0.00 0.01 0.01 74 1019.1
20260903154327 89 333 0.0 0.9 0.00 0.01 0.01 76 1018.9
20260903153822 89 251 0.0 0.9 0.00 0.01 0.01 75 1018.8
20260903153318 88 242 0.9 1.7 0.00 0.01 0.01 77 1018.9
20260903152814 87 222 0.0 0.9 0.00 0.01 0.01 77 1018.9
20260903152309 88 322 0.9 1.7 0.00 0.01 0.01 77 1018.8
20260903151804 87 240 0.0 0.0 0.00 0.01 0.01 80 1019.0
20260903151300 88 320 1.7 2.6 0.00 0.01 0.01 77 1018.8
20260903150759 88 183 0.0 0.9 0.00 0.01 0.01 78 1018.9
20260903150254 88 295 0.9 1.7 0.00 0.01 0.01 79 1018.8
20260903145750 88 351 0.9 2.6 0.00 0.01 0.01 78 1018.8
20260903145245 88 235 0.0 1.7 0.00 0.01 0.01 79 1018.7
20260903144743 89 75 0.9 3.5 0.00 0.01 0.01 77 1018.7
20260903144239 88 348 0.0 1.7 0.00 0.01 0.01 77 1018.5
20260903143735 88 94 0.9 1.7 0.00 0.01 0.01 77 1018.7
20260903143231 88 202 0.9 2.6 0.00 0.01 0.01 77 1018.6
20260903142726 88 245 0.0 1.7 0.00 0.01 0.01 77 1018.6
20260903142223 87 43 0.9 2.6 0.00 0.01 0.01 79 1018.7
20260903141718 87 345 1.7 1.7 0.00 0.01 0.01 78 1018.5
20260903141213 89 279 1.7 1.7 0.00 0.01 0.01 77 1018.4
20260903140708 88 55 0.0 0.9 0.00 0.01 0.01 78 1018.2
20260903140203 87 233 0.0 0.0 0.00 0.01 0.01 77 1018.3
20260903135659 86 118 0.9 2.6 0.00 0.01 0.01 80 1018.2
20260903135154 87 218 0.0 1.7 0.00 0.01 0.01 80 1018.3
20260903134652 88 204 0.0 0.0 0.00 0.01 0.01 80 1018.2
20260903134143 87 60 0.0 0.9 0.00 0.01 0.01 80 1018.5
20260903133641 85 228 0.9 0.9 0.00 0.01 0.01 84 1018.2
20260903133136 85 172 0.0 1.7 0.00 0.01 0.01 84 1018.4
20260903132631 85 206 0.0 0.9 0.00 0.01 0.01 85 1018.5
20260903132131 86 241 0.0 1.7 0.00 0.01 0.01 84 1018.5
20260903131625 85 215 0.0 0.0 0.00 0.01 0.01 85 1018.6
20260903131119 85 210 0.0 0.9 0.00 0.01 0.01 85 1018.7
20260903130616 84 185 0.0 0.0 0.00 0.01 0.01 87 1018.5
20260903130109 83 113 0.0 0.9 0.00 0.01 0.01 88 1018.6
20260903125607 82 181 0.0 0.9 0.00 0.01 0.01 89 1018.7
20260903125102 82 230 0.0 0.9 0.00 0.01 0.01 90 1018.5
20260903124557 81 205 0.0 0.9 0.00 0.01 0.01 92 1018.8
20260903124056 80 143 0.0 0.9 0.00 0.01 0.01 93 1018.8
20260903123556 80 171 0.0 0.9 0.00 0.01 0.01 94 1018.8
20260903123055 79 230 0.0 0.0 0.00 0.01 0.01 97 1018.7
20260903122555 78 197 0.0 0.0 0.00 0.01 0.01 99 1018.8
20260903122049 77 190 0.0 0.0 0.00 0.01 0.01 99 1018.8
20260903121543 77 169 0.0 0.0 0.00 0.01 0.01 99 1018.9
20260903121039 77 152 0.9 0.9 0.00 0.01 0.01 99 1018.9
20260903120537 77 175 0.0 0.9 0.00 0.01 0.01 99 1018.8
20260903120033 76 209 0.0 0.0 0.00 0.01 0.01 99 1018.9
20260903115531 76 208 0.0 0.0 0.00 0.01 0.01 99 1018.8
20260903115026 75 211 0.0 0.0 0.00 0.01 0.01 99 1018.8
20260903114521 75 211 0.0 0.0 0.00 0.01 0.01 99 1018.8
20260903114017 75 237 0.0 0.0 0.00 0.01 0.01 99 1018.5
20260903113513 75 237 0.0 0.0 0.00 0.01 0.01 99 1018.8
20260903113009 74 237 0.0 0.0 0.00 0.01 0.01 99 1018.6
20260903112504 74 237 0.0 0.0 0.00 0.01 0.01 99 1018.5
20260903112003 74 237 0.0 0.0 0.00 0.01 0.01 99 1018.4
20260903111457 74 224 0.0 0.0 0.00 0.01 0.01 99 1018.3
20260903110954 74 224 0.0 0.0 0.00 0.01 0.01 99 1018.4
20260903110449 73 224 0.0 0.0 0.05 0.01 0.01 99 1018.2
20260903105943 73 224 0.0 0.0 0.05 0.01 0.01 99 1018.2
20260903105439 74 225 0.0 0.0 0.00 0.00 0.00 99 1018.2
20260903104938 74 227 0.0 0.0 0.00 0.00 0.00 99 1018.2
20260903104437 73 235 0.0 0.0 0.00 0.00 0.00 99 1018.2
20260903103935 73 238 0.0 0.0 0.00 0.00 0.00 99 1018.0
20260903103430 73 239 0.0 0.0 0.00 0.00 0.00 99 1018.1
20260903102926 73 239 0.0 0.0 0.00 0.00 0.00 99 1018.0
20260903102421 73 239 0.0 0.0 0.00 0.00 0.00 99 1018.2
20260903101920 73 219 0.0 0.0 0.00 0.00 0.00 99 1018.0
20260903101415 73 218 0.0 0.0 0.00 0.00 0.00 99 1018.2
20260903100910 73 218 0.0 0.0 0.00 0.00 0.00 99 1018.0
20260903100405 73 218 0.0 0.0 0.00 0.00 0.00 99 1018.0
20260903095902 74 218 0.0 0.0 0.00 0.00 0.00 99 1018.2
20260903095356 73 225 0.0 0.0 0.00 0.00 0.00 99 1018.4
20260903094851 73 231 0.0 0.0 0.00 0.00 0.00 99 1018.4
20260903094346 74 233 0.0 0.0 0.00 0.00 0.00 99 1018.2
20260903093842 73 232 0.0 0.0 0.00 0.00 0.00 99 1018.1
20260903093337 74 231 0.0 0.0 0.00 0.00 0.00 99 1018.3
20260903092832 74 233 0.0 0.0 0.00 0.00 0.00 99 1018.2
20260903092326 74 231 0.0 0.0 0.00 0.00 0.00 99 1018.0
20260903091825 74 231 0.0 0.0 0.00 0.00 0.00 99 1018.0
20260903091319 74 231 0.0 0.0 0.00 0.00 0.00 99 1017.8
20260903090815 74 231 0.0 0.0 0.00 0.00 0.00 99 1018.1
20260903090315 74 231 0.0 0.0 0.00 0.00 0.00 99 1017.8
20260903085813 74 233 0.0 0.0 0.00 0.00 0.00 99 1017.8
20260903085308 74 233 0.0 0.0 0.00 0.00 0.00 99 1017.8
20260903084806 74 231 0.0 0.0 0.00 0.00 0.00 99 1017.8
20260903084300 74 231 0.0 0.0 0.00 0.00 0.00 99 1017.7
20260903083755 74 231 0.0 0.0 0.00 0.00 0.00 99 1017.8
20260903083250 74 231 0.0 0.0 0.00 0.00 0.00 99 1017.6
20260903082749 74 231 0.0 0.0 0.00 0.00 0.00 99 1017.6
20260903082246 74 231 0.0 0.0 0.00 0.00 0.00 99 1017.4
20260903081745 74 231 0.0 0.0 0.00 0.00 0.00 99 1017.7
20260903081241 74 231 0.0 0.0 0.00 0.00 0.00 99 1017.6
20260903080737 74 242 0.0 0.0 0.00 0.00 0.00 99 1017.8
20260903080234 74 242 0.0 0.0 0.00 0.00 0.00 99 1017.9
20260903075734 74 242 0.0 0.0 0.00 0.00 0.00 99 1017.8
20260903075229 74 242 0.0 0.0 0.00 0.00 0.00 99 1017.8
20260903074728 74 242 0.0 0.0 0.00 0.00 0.00 99 1018.0
20260903074223 74 242 0.0 0.0 0.00 0.00 0.00 99 1017.9
20260903073718 74 242 0.0 0.0 0.00 0.00 0.00 99 1017.9
20260903073214 74 242 0.0 0.0 0.00 0.00 0.00 99 1018.0
20260903072710 74 244 0.0 0.0 0.00 0.00 0.00 99 1017.9
20260903072206 75 242 0.0 0.0 0.00 0.00 0.00 99 1018.0
20260903071702 75 242 0.0 0.0 0.00 0.00 0.00 99 1018.0
20260903071157 75 227 0.0 0.0 0.00 0.00 0.00 99 1018.1
20260903070657 75 227 0.0 0.0 0.00 0.00 0.00 99 1018.1
20260903070153 75 245 0.0 0.0 0.00 0.00 0.00 99 1018.0
20260903065647 75 245 0.0 0.0 0.00 0.00 0.00 99 1018.1
20260903065141 75 246 0.0 0.0 0.00 0.00 0.00 99 1018.2
20260903064640 75 250 0.0 0.0 0.00 0.00 0.00 99 1018.0
20260903064136 75 250 0.0 0.0 0.00 0.00 0.00 99 1018.1
20260903063632 75 235 0.0 0.0 0.00 0.00 0.00 99 1018.0
20260903063127 75 235 0.0 0.0 0.00 0.00 0.00 99 1018.0
20260903062623 75 235 0.0 0.0 0.00 0.00 0.00 99 1018.3
20260903062118 75 242 0.0 0.0 0.00 0.00 0.00 99 1018.3
20260903061613 75 231 0.0 0.0 0.00 0.00 0.00 99 1018.2
20260903061112 75 231 0.0 0.0 0.00 0.00 0.00 99 1018.3
20260903060607 75 219 0.0 0.0 0.00 0.00 0.00 99 1018.3
20260903055600 75 218 0.0 0.0 0.00 0.00 0.00 99 1018.4
20260903055058 76 199 0.0 0.9 0.00 0.00 0.00 99 1018.3
20260903054553 75 212 0.0 0.0 0.00 0.00 0.00 99 1018.3
20260903054049 76 197 0.0 0.0 0.00 0.00 0.00 99 1018.5
20260903053544 76 247 0.0 0.0 0.00 0.00 0.00 99 1018.4
20260903053041 76 212 0.0 0.0 0.00 0.00 0.00 99 1018.6
20260903052536 76 215 0.0 0.0 0.00 0.00 0.00 99 1018.7
20260903052032 76 215 0.0 0.0 0.00 0.00 0.00 99 1018.7
20260903051531 76 199 0.0 0.0 0.00 0.00 0.00 99 1019.1
20260903051027 76 258 0.0 0.0 0.00 0.00 0.00 99 1018.8
20260903050526 76 246 0.0 0.0 0.00 0.00 0.00 99 1018.9
20260903050022 76 266 0.0 0.0 0.00 0.00 0.00 99 1019.0
20260903045521 76 303 0.0 0.0 0.00 0.00 0.00 99 1018.8
20260903045018 76 254 0.0 0.9 0.00 0.00 0.00 99 1018.8
20260903044513 76 343 0.0 0.9 0.00 0.00 0.00 99 1018.9
20260903044009 76 254 0.0 0.0 0.00 0.00 0.00 99 1018.7
20260903043504 77 242 0.0 0.0 0.00 0.00 0.00 99 1018.7
20260903043003 77 3 0.0 0.0 0.00 0.00 0.00 99 1018.7
20260903042458 77 250 0.0 0.0 0.00 0.00 0.00 99 1018.6
20260903041954 77 315 0.0 0.0 0.00 0.00 0.00 99 1018.7
20260903041451 77 211 0.0 0.0 0.00 0.00 0.00 99 1018.4
20260903040946 77 122 0.0 0.9 0.00 0.00 0.00 99 1018.4
20260903040444 77 174 0.0 0.0 0.00 0.00 0.00 99 1018.4